Location: Kerb�bon
(47.7970°N, 3.3487°W)
Time: 12:17:56
(UTC+00:00)

Cosmos 1975 - Pass Details

Date: 12 May 2021
Orbit: 541 x 561 km, 82.5° (Epoch: 18 June)

Event Time Altitude Azimuth Distance (km) Brightness Sun altitude
Rises 22:49:41 0° 354° (N) 2,715 7.7 -21.4°
Reaches altitude 10° 22:51:54 10° 360° (N) 1,817 6.5 -21.6°
Maximum altitude 22:55:48 53° 77° (ENE) 674 3.1 -21.8°
Enters shadow 22:55:55 52° 85° (E) 676 3.1 -21.8°
